Time,TemperatureF,DewpointF,PressureIn,WindDirection,WindDirectionDegrees,WindSpeedMPH,WindSpeedGustMPH,Humidity,HourlyPrecipIn,Conditions,Clouds,dailyrainin,SolarRadiationWatts/m^2,SoftwareType,DateUTC
2013-02-25 00:01:00,42.0,37.0,-100.00,SW,218,5.0,12.0,82,0.00,,,0.01,22.000000,,2013-02-25 08:01:00,
2013-02-25 00:11:00,42.0,37.0,-100.00,SW,218,5.0,12.0,82,0.00,,,0.01,22.000000,,2013-02-25 08:11:00,
2013-02-25 00:21:00,42.0,37.0,-100.00,SW,218,5.0,12.0,82,0.00,,,0.01,22.000000,,2013-02-25 08:21:00,
2013-02-25 00:31:00,42.0,37.0,-100.00,SW,218,5.0,12.0,82,0.00,,,0.01,22.000000,,2013-02-25 08:31:00,
2013-02-25 00:52:00,42.0,38.0,-100.00,South,181,4.0,14.0,84,0.00,,,0.01,22.000000,,2013-02-25 08:52:00,
2013-02-25 01:01:00,42.0,38.0,-100.00,South,181,4.0,14.0,84,0.00,,,0.01,22.000000,,2013-02-25 09:01:00,
2013-02-25 01:12:00,42.0,38.0,-100.00,South,181,4.0,14.0,84,0.00,,,0.01,22.000000,,2013-02-25 09:12:00,
2013-02-25 01:21:00,42.0,38.0,-100.00,South,181,4.0,14.0,84,0.00,,,0.01,22.000000,,2013-02-25 09:21:00,
2013-02-25 01:31:00,42.0,38.0,-100.00,South,181,4.0,14.0,84,0.00,,,0.01,22.000000,,2013-02-25 09:31:00,
2013-02-25 02:01:00,40.0,39.0,-100.00,SW,224,2.0,10.0,96,0.06,,,0.07,39.000000,,2013-02-25 10:01:00,
2013-02-25 02:11:00,40.0,39.0,-100.00,SW,224,2.0,10.0,96,0.06,,,0.07,39.000000,,2013-02-25 10:11:00,
2013-02-25 02:21:00,40.0,39.0,-100.00,SW,224,2.0,10.0,96,0.06,,,0.07,39.000000,,2013-02-25 10:21:00,
2013-02-25 02:31:00,40.0,39.0,-100.00,SW,224,2.0,10.0,96,0.06,,,0.07,39.000000,,2013-02-25 10:31:00,
2013-02-25 03:01:00,39.0,39.0,-100.00,SSW,197,2.0,6.0,99,0.03,,,0.10,41.000000,,2013-02-25 11:01:00,
2013-02-25 03:11:00,39.0,39.0,-100.00,SSW,197,2.0,6.0,99,0.03,,,0.10,41.000000,,2013-02-25 11:11:00,
2013-02-25 03:21:00,39.0,39.0,-100.00,SSW,197,2.0,6.0,99,0.03,,,0.10,41.000000,,2013-02-25 11:21:00,
2013-02-25 03:31:00,39.0,39.0,-100.00,SSW,197,2.0,6.0,99,0.03,,,0.10,41.000000,,2013-02-25 11:31:00,
2013-02-25 03:52:00,39.0,38.0,-100.00,South,191,4.0,7.0,97,0.00,,,0.10,41.000000,,2013-02-25 11:52:00,
2013-02-25 04:01:00,39.0,38.0,-100.00,South,191,4.0,7.0,97,0.00,,,0.10,41.000000,,2013-02-25 12:01:00,
2013-02-25 04:11:00,39.0,38.0,-100.00,South,191,4.0,7.0,97,0.00,,,0.10,41.000000,,2013-02-25 12:11:00,
2013-02-25 04:21:00,39.0,38.0,-100.00,South,191,4.0,7.0,97,0.00,,,0.10,41.000000,,2013-02-25 12:21:00,
2013-02-25 04:32:00,39.0,38.0,-100.00,South,191,4.0,7.0,97,0.00,,,0.10,41.000000,,2013-02-25 12:32:00,
2013-02-25 05:02:00,40.0,38.0,-100.00,South,188,5.0,9.0,91,0.00,,,-99.99,40.000000,,2013-02-25 13:02:00,
2013-02-25 05:12:00,40.0,38.0,-100.00,South,188,5.0,9.0,91,0.00,,,-99.99,40.000000,,2013-02-25 13:12:00,
2013-02-25 05:22:00,40.0,38.0,-100.00,South,188,5.0,9.0,91,0.00,,,-99.99,40.000000,,2013-02-25 13:22:00,
2013-02-25 05:31:00,40.0,38.0,-100.00,South,188,5.0,9.0,91,0.00,,,-99.99,40.000000,,2013-02-25 13:31:00,
2013-02-25 05:52:00,40.0,36.0,-100.00,South,188,5.0,8.0,87,0.00,,,0.09,37.000000,,2013-02-25 13:52:00,
2013-02-25 06:02:00,40.0,36.0,-100.00,South,188,5.0,8.0,87,0.00,,,0.09,37.000000,,2013-02-25 14:02:00,
2013-02-25 06:15:00,40.0,36.0,-100.00,South,188,5.0,8.0,87,0.00,,,0.09,37.000000,,2013-02-25 14:15:00,
2013-02-25 06:21:00,40.0,36.0,-100.00,South,188,5.0,8.0,87,0.00,,,0.09,37.000000,,2013-02-25 14:21:00,
2013-02-25 06:31:00,40.0,36.0,-100.00,South,188,5.0,8.0,87,0.00,,,0.09,37.000000,,2013-02-25 14:31:00,
2013-02-25 07:02:00,40.0,37.0,-100.00,SSW,195,6.0,13.0,89,0.00,,,0.09,37.000000,,2013-02-25 15:02:00,
2013-02-25 07:11:00,40.0,37.0,-100.00,SSW,195,6.0,13.0,89,0.00,,,0.09,37.000000,,2013-02-25 15:11:00,
2013-02-25 07:21:00,40.0,37.0,-100.00,SSW,195,6.0,13.0,89,0.00,,,0.09,37.000000,,2013-02-25 15:21:00,
2013-02-25 07:32:00,40.0,37.0,-100.00,SSW,195,6.0,13.0,89,0.00,,,0.09,37.000000,,2013-02-25 15:32:00,
2013-02-25 08:01:00,41.0,37.0,-100.00,South,187,7.0,11.0,86,0.00,,,0.09,36.000000,,2013-02-25 16:01:00,
2013-02-25 08:11:00,41.0,37.0,-100.00,South,187,7.0,11.0,86,0.00,,,0.09,36.000000,,2013-02-25 16:11:00,
2013-02-25 08:21:00,41.0,37.0,-100.00,South,187,7.0,11.0,86,0.00,,,0.09,36.000000,,2013-02-25 16:21:00,
2013-02-25 08:31:00,41.0,37.0,-100.00,South,187,7.0,11.0,86,0.00,,,0.09,36.000000,,2013-02-25 16:31:00,
2013-02-25 09:01:00,41.0,36.0,-100.00,South,189,5.0,15.0,83,0.00,,,0.09,35.000000,,2013-02-25 17:01:00,
2013-02-25 09:11:00,41.0,36.0,-100.00,South,189,5.0,15.0,83,0.00,,,0.09,35.000000,,2013-02-25 17:11:00,
2013-02-25 09:21:00,41.0,36.0,-100.00,South,189,5.0,15.0,83,0.00,,,0.09,35.000000,,2013-02-25 17:21:00,
2013-02-25 09:31:00,41.0,36.0,-100.00,South,189,5.0,15.0,83,0.00,,,0.09,35.000000,,2013-02-25 17:31:00,
2013-02-25 10:01:00,42.0,36.0,-100.00,South,191,3.0,11.0,79,0.00,,,0.09,33.000000,,2013-02-25 18:01:00,
2013-02-25 10:12:00,42.0,36.0,-100.00,South,191,3.0,11.0,79,0.00,,,0.09,33.000000,,2013-02-25 18:12:00,
2013-02-25 10:21:00,42.0,36.0,-100.00,South,191,3.0,11.0,79,0.00,,,0.09,33.000000,,2013-02-25 18:21:00,
2013-02-25 10:32:00,42.0,36.0,-100.00,South,191,3.0,11.0,79,0.00,,,0.09,33.000000,,2013-02-25 18:32:00,
2013-02-25 11:01:00,43.0,36.0,-100.00,South,191,3.0,7.0,75,0.00,,,0.09,32.000000,,2013-02-25 19:01:00,
2013-02-25 11:11:00,43.0,36.0,-100.00,South,191,3.0,7.0,75,0.00,,,0.09,32.000000,,2013-02-25 19:11:00,
2013-02-25 11:21:00,43.0,36.0,-100.00,South,191,3.0,7.0,75,0.00,,,0.09,32.000000,,2013-02-25 19:21:00,
2013-02-25 11:31:00,43.0,36.0,-100.00,South,191,3.0,7.0,75,0.00,,,0.09,32.000000,,2013-02-25 19:31:00,
2013-02-25 12:01:00,47.0,36.0,-100.00,SSW,193,2.0,6.0,66,0.00,,,0.09,28.000000,,2013-02-25 20:01:00,
2013-02-25 12:11:00,47.0,36.0,-100.00,SSW,193,2.0,6.0,66,0.00,,,0.09,28.000000,,2013-02-25 20:11:00,
2013-02-25 12:21:00,47.0,36.0,-100.00,SSW,193,2.0,6.0,66,0.00,,,0.09,28.000000,,2013-02-25 20:21:00,
2013-02-25 12:31:00,47.0,36.0,-100.00,SSW,193,2.0,6.0,66,0.00,,,0.09,28.000000,,2013-02-25 20:31:00,
2013-02-25 13:01:00,49.0,34.0,-100.00,South,190,2.0,5.0,57,0.00,,,0.09,23.000000,,2013-02-25 21:01:00,
2013-02-25 13:11:00,49.0,34.0,-100.00,South,190,2.0,5.0,57,0.00,,,0.09,23.000000,,2013-02-25 21:11:00,
2013-02-25 13:21:00,49.0,34.0,-100.00,South,190,2.0,5.0,57,0.00,,,0.09,23.000000,,2013-02-25 21:21:00,
2013-02-25 13:31:00,49.0,34.0,-100.00,South,190,2.0,5.0,57,0.00,,,0.09,23.000000,,2013-02-25 21:31:00,
2013-02-25 14:01:00,50.0,34.0,-100.00,SSW,196,2.0,7.0,53,0.00,,,0.09,21.000000,,2013-02-25 22:01:00,
2013-02-25 14:11:00,50.0,34.0,-100.00,SSW,196,2.0,7.0,53,0.00,,,0.09,21.000000,,2013-02-25 22:11:00,
2013-02-25 14:21:00,50.0,34.0,-100.00,SSW,196,2.0,7.0,53,0.00,,,0.09,21.000000,,2013-02-25 22:21:00,
2013-02-25 14:31:00,50.0,34.0,-100.00,SSW,196,2.0,7.0,53,0.00,,,0.09,21.000000,,2013-02-25 22:31:00,
2013-02-25 14:52:00,50.0,34.0,-100.00,South,191,2.0,5.0,53,0.00,,,0.09,19.000000,,2013-02-25 22:52:00,
2013-02-25 15:01:00,50.0,34.0,-100.00,South,191,2.0,5.0,53,0.00,,,0.09,19.000000,,2013-02-25 23:01:00,
2013-02-25 15:11:00,50.0,34.0,-100.00,South,191,2.0,5.0,53,0.00,,,0.09,19.000000,,2013-02-25 23:11:00,
2013-02-25 15:22:00,50.0,34.0,-100.00,South,191,2.0,5.0,53,0.00,,,0.09,19.000000,,2013-02-25 23:22:00,
2013-02-25 15:31:00,50.0,34.0,-100.00,South,191,2.0,5.0,53,0.00,,,0.09,19.000000,,2013-02-25 23:31:00,
2013-02-25 16:01:00,49.0,35.0,-100.00,SSW,195,2.0,5.0,58,0.00,,,0.09,19.000000,,2013-02-26 00:01:00,
2013-02-25 16:11:00,49.0,35.0,-100.00,SSW,195,2.0,5.0,58,0.00,,,0.09,19.000000,,2013-02-26 00:11:00,
2013-02-25 16:21:00,49.0,35.0,-100.00,SSW,195,2.0,5.0,58,0.00,,,0.09,19.000000,,2013-02-26 00:21:00,
2013-02-25 16:32:00,49.0,35.0,-100.00,SSW,195,2.0,5.0,58,0.00,,,0.09,19.000000,,2013-02-26 00:32:00,
2013-02-25 17:02:00,46.0,34.0,-100.00,SSW,192,2.0,5.0,63,0.00,,,0.09,19.000000,,2013-02-26 01:02:00,
2013-02-25 17:11:00,46.0,34.0,-100.00,SSW,192,2.0,5.0,63,0.00,,,0.09,19.000000,,2013-02-26 01:11:00,
2013-02-25 17:21:00,46.0,34.0,-100.00,SSW,192,2.0,5.0,63,0.00,,,0.09,19.000000,,2013-02-26 01:21:00,
2013-02-25 17:31:00,46.0,34.0,-100.00,SSW,192,2.0,5.0,63,0.00,,,0.09,19.000000,,2013-02-26 01:31:00,
2013-02-25 18:01:00,43.0,34.0,-100.00,South,184,1.0,4.0,69,0.00,,,0.09,20.000000,,2013-02-26 02:01:00,
2013-02-25 18:11:00,43.0,34.0,-100.00,South,184,1.0,4.0,69,0.00,,,0.09,20.000000,,2013-02-26 02:11:00,
2013-02-25 18:21:00,43.0,34.0,-100.00,South,184,1.0,4.0,69,0.00,,,0.09,20.000000,,2013-02-26 02:21:00,
2013-02-25 18:31:00,43.0,34.0,-100.00,South,184,1.0,4.0,69,0.00,,,0.09,20.000000,,2013-02-26 02:31:00,
2013-02-25 19:01:00,41.0,34.0,-100.00,South,177,1.0,4.0,75,0.00,,,0.09,20.000000,,2013-02-26 03:01:00,
2013-02-25 19:11:00,41.0,34.0,-100.00,South,177,1.0,4.0,75,0.00,,,0.09,20.000000,,2013-02-26 03:11:00,
2013-02-25 19:21:00,41.0,34.0,-100.00,South,177,1.0,4.0,75,0.00,,,0.09,20.000000,,2013-02-26 03:21:00,
2013-02-25 19:31:00,41.0,34.0,-100.00,South,177,1.0,4.0,75,0.00,,,0.09,20.000000,,2013-02-26 03:31:00,
2013-02-25 20:01:00,40.0,34.0,-100.00,South,172,2.0,6.0,78,0.00,,,0.09,21.000000,,2013-02-26 04:01:00,
2013-02-25 20:11:00,40.0,34.0,-100.00,South,172,2.0,6.0,78,0.00,,,0.09,21.000000,,2013-02-26 04:11:00,
2013-02-25 20:21:00,40.0,34.0,-100.00,South,172,2.0,6.0,78,0.00,,,0.09,21.000000,,2013-02-26 04:21:00,
2013-02-25 20:31:00,40.0,34.0,-100.00,South,172,2.0,6.0,78,0.00,,,0.09,21.000000,,2013-02-26 04:31:00,
2013-02-25 21:01:00,39.0,34.0,-100.00,South,169,1.0,4.0,81,0.00,,,0.09,21.000000,,2013-02-26 05:01:00,
2013-02-25 21:11:00,39.0,34.0,-100.00,South,169,1.0,4.0,81,0.00,,,0.09,21.000000,,2013-02-26 05:11:00,
2013-02-25 21:21:00,39.0,34.0,-100.00,South,169,1.0,4.0,81,0.00,,,0.09,21.000000,,2013-02-26 05:21:00,
2013-02-25 21:31:00,39.0,34.0,-100.00,South,169,1.0,4.0,81,0.00,,,0.09,21.000000,,2013-02-26 05:31:00,
2013-02-25 22:01:00,38.0,34.0,-100.00,South,176,1.0,3.0,86,0.00,,,0.09,21.000000,,2013-02-26 06:01:00,
2013-02-25 22:11:00,38.0,34.0,-100.00,South,176,1.0,3.0,86,0.00,,,0.09,21.000000,,2013-02-26 06:11:00,
2013-02-25 22:21:00,38.0,34.0,-100.00,South,176,1.0,3.0,86,0.00,,,0.09,21.000000,,2013-02-26 06:21:00,
2013-02-25 22:31:00,38.0,34.0,-100.00,South,176,1.0,3.0,86,0.00,,,0.09,21.000000,,2013-02-26 06:31:00,
2013-02-25 23:01:00,36.0,34.0,-100.00,SSW,201,1.0,2.0,91,0.00,,,0.09,22.000000,,2013-02-26 07:01:00,
2013-02-25 23:11:00,36.0,34.0,-100.00,SSW,201,1.0,2.0,91,0.00,,,0.09,22.000000,,2013-02-26 07:11:00,
2013-02-25 23:22:00,36.0,34.0,-100.00,SSW,201,1.0,2.0,91,0.00,,,0.09,22.000000,,2013-02-26 07:22:00,
2013-02-25 23:31:00,36.0,34.0,-100.00,SSW,201,1.0,2.0,91,0.00,,,0.09,22.000000,,2013-02-26 07:31:00,
2013-02-25 23:52:00,37.0,35.0,-100.00,South,190,1.0,2.0,92,0.00,,,0.09,22.000000,,2013-02-26 07:52:00,